Location: Bavegemberg
(50.9500°N, 3.8833°E)
Time: 06:47:18
(UTC+00:00)

MOZ.5/SAFIR/RUBIN 5/SL-8 - Pass Details

Date: 23 May 2024
Orbit: 671 x 700 km, 98.3° (Epoch: 19 June)

Event Time Altitude Azimuth Distance (km) Brightness Sun altitude
Exits shadow 01:18:34 22° 176° (S) 1,521 5.0 -15.3°
Maximum altitude 01:21:40 70° 257° (WSW) 742 3.8 -15.1°
Drops below altitude 10° 01:26:23 10° 342° (NNW) 2,159 7.0 -14.8°
Sets 01:28:39 0° 344° (NNW) 3,076 7.9 -14.6°
